Temp
20 20 20 21 21 21 21 22 22 22 22 22 22 23 23 22 22 22 24 24 23 23 23 22 23 24 24 25 25 25 27 29 29 28 29 27 26 25 24 26 24 24 24 21 20
20 20 20 20 20 21 21 21 21 22 22 23 23 23 23 22 22 24 24 24 24 23 22 24 26 25 27 26 26 26 27 29 29 29 28 27 26 27 24 25 25 24 22 18 18
19 20 20 20 20 20 20 21 21 22 22 22 23 23 23 22 25 27 23 23 23 23 22 24 25 26 26 26 26 27 27 28 28 27 26 27 26 26 25 26 27 27 26 19 18
19 19 19 19 19 20 20 21 22 22 22 22 23 22 22 22 27 23 22 22 23 22 22 24 25 25 26 26 27 25 27 27 26 25 24 25 26 25 25 27 28 28 28 22 19
18 19 19 20 20 20 20 21 21 22 22 22 22 22 22 25 27 23 23 23 22 21 24 25 26 27 26 27 26 25 27 26 25 24 23 24 23 25 26 27 27 26 23 23 20
14 16 18 19 20 20 20 21 21 21 22 22 22 22 22 24 23 22 22 22 22 22 24 24 26 26 26 26 25 25 25 26 25 24 23 22 24 23 26 27 27 26 23 22 22
10 13 17 19 19 20 20 21 21 22 22 22 21 21 24 26 22 21 21 20 21 22 24 22 23 24 25 26 24 24 23 27 26 24 23 22 23 23 26 25 25 25 25 23 22
10 10 15 18 18 19 20 20 21 22 22 21 21 20 24 22 20 20 20 20 20 20 21 20 21 24 24 23 24 24 25 26 28 24 22 22 26 29 30 26 24 25 26 24 23
10 11 14 17 18 19 19 20 21 21 20 20 19 22 25 20 20 20 20 22 20 20 19 20 22 24 22 24 26 27 26 28 28 24 23 22 26 28 26 25 25 26 27 27 24
10 9 10 16 18 19 20 21 21 18 18 19 19 22 23 23 20 19 19 20 22 21 22 22 23 24 24 26 25 28 28 28 28 26 23 23 22 26 27 27 26 26 26 26 27
10 10 9 10 14 18 19 20 22 22 20 25 24 25 22 18 18 19 19 20 22 22 23 23 24 24 27 27 26 26 26 26 27 27 23 24 24 25 26 26 25 26 27 27 26
11 10 10 10 12 16 17 20 15 14 20 23 21 21 19 19 21 20 19 21 21 22 24 22 23 26 27 26 24 25 24 24 26 26 21 23 23 24 25 25 25 25 26 26 27
11 11 11 11 11 13 15 14 14 13 19 22 20 21 22 19 22 23 20 21 21 23 24 23 26 22 23 23 22 23 23 24 25 25 20 20 21 23 24 24 25 25 25 25 25
12 11 11 12 13 12 15 13 14 14 20 23 20 19 17 19 19 17 19 21 21 22 24 23 25 23 23 22 23 22 25 24 23 22 22 22 22 25 26 26 26 25 25 27 27
12 12 11 12 11 15 11 11 12 14 20 21 18 16 17 19 18 17 16 19 21 21 21 24 22 19 20 22 23 22 18 20 21 20 21 22 21 24 24 24 23 24 25 27 24
12 12 11 11 11 11 12 11 13 20 20 21 19 17 17 17 17 16 17 18 18 20 20 20 18 19 22 17 19 17 19 19 19 20 19 23 23 24 25 23 24 24 25 24 21
12 12 11 11 14 12 13 14 19 19 21 22 21 17 19 19 18 17 17 16 18 18 20 22 20 20 17 19 17 17 20 21 22 21 21 26 23 25 26 25 25 25 26 23 20
12 11 11 10 11 12 12 17 17 21 23 20 19 18 19 21 19 18 18 19 19 20 21 22 22 19 18 20 23 18 21 22 20 21 23 22 22 25 27 26 25 25 24 21 18
12 11 9 10 10 11 15 16 19 21 22 21 18 19 20 19 20 19 19 21 22 19 20 22 23 15 16 16 19 19 17 20 19 16 18 23 25 27 23 23 23 22 19 18 19
10 10 10 10 9 10 11 15 20 21 21 20 20 22 22 23 19 19 22 23 21 20 21 23 21 20 12 14 15 17 17 18 18 18 19 23 23 24 24 25 22 21 20 21 20
11 10 10 10 8 9 8 11 17 19 19 19 20 21 22 23 23 22 22 23 22 21 20 21 21 19 14 15 19 14 16 16 17 19 19 19 22 25 23 24 24 22 20 20 20
10 11 9 8 9 8 8 12 13 15 16 17 19 18 20 21 22 22 22 23 22 18 17 18 16 18 21 21 17 19 20 19 18 19 19 19 20 20 22 23 21 21 20 21 20
11 11 8 9 11 9 9 11 12 13 14 13 13 16 18 17 16 18 20 21 22 18 17 15 13 14 17 17 13 15 17 18 19 19 18 18 20 23 24 22 21 21 21 20 20
10 10 8 8 11 12 10 12 12 14 13 14 12 13 13 14 16 15 15 18 18 17 15 16 14 13 14 19 20 17 16 17 16 17 17 18 19 21 22 22 22 22 22 22 22
8 10 10 9 9 10 12 12 13 13 14 15 13 12 12 12 13 12 14 15 15 15 13 14 11 12 14 16 17 16 17 17 16 16 16 18 18 20 21 22 22 22 21 21 20
7 9 8 9 10 10 10 11 12 13 14 14 12 13 14 12 14 15 13 13 14 13 13 12 10 10 11 14 14 13 15 15 16 16 18 17 17 20 20 20 20 20 20 19 19
5 5 4 6 8 9 10 11 12 13 14 15 15 13 13 13 14 15 16 16 10 10 9 9 9 9 10 12 12 11 12 13 15 16 17 16 17 19 19 19 19 20 20 19 18
Height
828 826 824 822 820 818 817 815 813 811 809 808 807 806 805 804 804 803 801 799 798 798 799 801 801 801 801 799 799 797 800 793 788 792 782 784 788 788 789 787 792 792 791 796 799
828 826 824 823 821 819 817 815 813 811 809 807 806 805 804 804 803 800 796 795 796 797 798 799 797 799 796 797 797 796 795 784 778 778 783 783 786 782 793 789 786 788 792 798 800
828 826 824 822 821 819 817 815 812 810 809 807 805 804 803 803 801 789 791 794 795 796 797 798 797 797 797 794 792 790 791 779 779 779 782 782 784 781 787 783 773 775 778 792 797
827 825 824 822 820 818 816 814 811 809 807 806 804 803 802 803 807 790 790 793 794 796 797 797 796 797 796 797 788 798 781 782 781 783 787 787 778 780 779 767 764 765 767 779 788
825 824 823 821 819 817 815 812 810 808 806 804 803 802 802 800 791 788 790 792 794 796 797 796 794 791 794 786 790 794 781 783 782 786 787 783 784 780 768 761 763 767 772 774 781
824 822 820 819 817 815 813 811 808 806 804 802 800 800 802 802 788 788 790 791 792 793 793 794 790 790 790 790 792 786 785 782 780 783 784 787 779 781 758 755 758 761 768 770 771
822 820 818 816 815 812 810 808 806 803 801 799 799 799 797 788 786 786 788 789 790 791 791 792 792 791 789 788 787 788 791 773 774 777 782 783 784 773 754 757 758 758 759 762 763
821 818 815 813 812 810 808 805 802 800 798 797 797 799 791 784 785 786 787 789 789 790 790 790 791 789 789 789 787 789 783 782 759 774 781 783 767 747 741 750 756 753 751 753 754
821 817 813 810 809 806 805 803 799 796 795 796 797 797 786 783 783 785 787 788 790 791 791 791 791 788 793 791 786 773 780 769 760 767 775 782 761 742 745 751 750 745 740 738 743
822 818 812 809 806 804 802 800 796 795 795 795 797 799 783 780 781 783 785 787 788 791 792 791 788 787 784 784 789 769 764 758 759 759 771 771 767 746 742 742 739 734 733 730 727
823 819 815 809 804 802 800 799 797 794 793 781 780 778 779 781 782 784 784 786 786 787 789 786 789 781 767 765 767 767 768 768 749 748 766 759 757 746 737 736 734 725 721 719 719
822 820 816 811 804 801 800 798 803 807 794 779 780 779 777 779 779 781 784 785 785 784 778 791 784 762 758 762 770 767 772 764 750 747 770 759 756 744 739 730 725 720 712 709 709
820 819 816 812 806 803 800 798 799 803 798 774 772 771 772 776 770 768 777 776 779 779 772 777 758 766 769 769 778 770 770 759 758 748 766 768 754 740 728 722 717 711 704 702 705
817 818 815 813 813 809 804 803 798 798 790 764 770 770 772 773 774 774 773 775 775 773 769 765 756 762 765 769 765 772 750 752 758 768 764 757 739 725 718 713 709 704 697 691 691
814 816 814 814 817 815 815 808 803 800 796 762 770 772 772 771 773 775 775 773 770 770 773 755 761 771 772 760 756 760 767 764 763 765 760 756 753 721 713 715 713 703 690 683 689
811 813 813 814 813 812 812 812 811 799 779 758 761 769 773 771 771 775 775 773 772 771 770 762 767 765 754 767 765 770 767 766 767 765 759 737 738 717 709 713 704 695 686 686 694
808 810 810 811 809 808 810 813 807 786 748 746 749 760 761 761 766 768 772 775 769 777 765 749 755 755 762 763 770 771 766 760 752 755 731 709 717 701 693 694 693 684 679 685 694
801 803 803 807 807 808 809 807 802 753 748 748 751 755 754 747 755 761 762 763 758 758 754 748 748 749 751 745 736 759 750 753 757 748 714 717 710 692 673 674 677 674 676 685 694
796 793 793 796 802 805 804 796 749 747 744 751 761 754 745 747 749 754 751 738 735 748 752 740 733 751 751 750 743 753 762 746 750 752 739 701 680 665 675 677 675 678 685 687 690
789 790 785 791 797 793 795 764 739 735 742 743 745 733 733 728 747 747 734 718 730 731 729 720 736 728 759 756 756 747 747 753 754 755 738 680 685 684 674 667 673 678 679 674 678
785 783 774 779 794 799 795 770 750 741 747 746 737 730 721 722 717 724 721 712 716 722 729 726 729 729 750 746 729 756 746 749 747 730 729 711 674 648 664 660 661 670 675 673 673
778 773 773 774 787 786 790 768 758 750 751 745 736 738 729 723 718 717 714 709 710 723 733 729 735 729 711 708 724 721 718 721 731 722 717 713 650 658 652 655 662 667 669 669 673
767 763 768 770 760 768 768 759 758 751 749 754 754 741 729 736 741 725 715 707 708 720 723 731 748 745 724 724 733 725 718 717 710 712 703 719 647 645 644 655 659 662 662 665 664
765 754 761 757 745 746 753 744 744 730 735 736 741 744 746 737 732 724 728 713 711 713 718 718 736 744 729 691 682 707 712 712 715 710 693 685 679 644 646 652 647 648 646 650 649
761 741 738 743 740 735 733 730 727 725 720 720 723 729 733 731 728 730 725 712 712 715 721 721 733 731 720 703 695 702 700 700 696 692 695 664 675 651 638 646 637 636 636 644 641
761 750 741 732 725 725 726 716 714 706 709 705 713 707 708 717 711 703 707 707 706 712 715 723 731 728 718 698 695 709 700 682 680 680 667 668 663 647 640 635 638 632 633 638 629
758 757 757 740 729 724 713 701 698 700 694 694 695 702 699 698 692 683 685 686 703 712 721 723 726 722 708 693 699 703 680 670 669 654 655 665 646 635 629 628 625 622 630 626 624
Wind_Speed
10 12 13 14 15 16 17 17 16 16 16 16 10 5 4 3 5 5 7 6 5 4 2 3 4 5 5 3 3 2 5 6 5 5 1 4 9 4 3 8 5 8 6 4 17
11 12 13 14 15 16 16 17 17 16 16 16 13 8 6 6 8 14 9 9 7 5 5 8 5 8 5 3 3 5 5 4 1 4 5 4 9 7 7 11 14 13 11 7 21
10 11 12 14 15 16 17 17 17 17 16 15 14 9 5 5 7 3 14 11 7 6 4 5 4 8 7 4 6 3 5 2 5 7 5 8 8 8 9 16 14 16 16 15 22
11 12 13 14 15 16 16 17 17 18 17 16 14 8 4 3 6 2 10 8 5 6 5 5 6 5 6 7 6 5 10 7 2 3 4 9 6 7 16 19 3 9 13 19 21
12 12 13 14 16 16 18 18 18 18 18 16 12 6 1 6 8 5 10 8 5 5 7 7 8 7 8 5 4 9 9 6 9 6 10 9 13 12 18 18 17 10 6 15 18
14 15 14 14 15 17 18 20 20 21 20 17 8 5 5 11 4 5 9 8 7 8 6 6 4 4 8 5 7 5 8 12 8 12 9 8 13 3 13 13 18 17 16 16 19
14 16 17 16 16 17 18 19 21 22 21 14 6 6 7 13 4 5 8 7 8 5 7 4 2 5 2 6 2 5 9 13 13 12 7 7 11 18 20 8 11 13 16 18 20
16 16 17 17 17 19 19 20 21 23 18 8 5 4 7 6 4 6 6 4 4 3 3 4 3 3 4 1 5 6 7 11 1 10 5 9 18 12 9 10 13 16 16 17 21
17 18 18 18 17 19 20 21 23 16 6 2 4 6 7 1 4 7 7 4 6 4 3 4 3 4 4 7 12 12 12 15 15 15 5 13 15 3 1 8 15 18 18 17 19
19 20 20 18 16 18 19 20 15 3 1 3 2 4 6 1 4 5 5 9 3 6 4 6 6 9 8 10 14 17 17 20 20 9 14 14 21 23 17 19 20 23 22 21 19
19 23 24 22 14 12 16 6 5 5 6 7 2 5 2 2 4 5 5 9 5 7 10 9 9 16 17 19 21 21 22 24 26 11 10 19 22 24 22 19 22 23 22 21 20
17 21 26 28 16 6 4 2 2 2 9 11 15 10 7 3 5 9 9 10 8 15 14 5 17 22 18 13 13 20 22 27 23 6 7 17 22 21 22 26 24 22 22 20 15
16 18 24 30 18 4 1 4 3 1 7 7 7 7 4 11 9 11 15 7 10 15 18 21 19 4 5 13 13 18 21 22 20 10 12 13 16 16 13 18 18 18 21 19 16
15 14 17 28 8 10 2 1 3 4 6 8 7 3 4 3 5 2 9 6 8 12 18 18 19 20 17 20 16 18 12 17 19 11 11 2 16 12 16 19 15 18 21 17 12
16 14 13 14 12 7 8 4 2 3 9 3 4 2 4 6 3 2 2 4 15 10 6 10 7 6 13 14 12 11 2 5 9 13 18 16 14 15 8 11 13 17 19 18 3
19 15 13 8 4 5 5 8 6 6 12 5 6 6 5 6 3 3 4 3 2 7 13 20 3 5 6 2 5 3 4 7 6 8 11 17 18 8 7 5 5 14 15 3 6
21 20 19 8 3 4 2 3 6 11 3 9 8 8 8 9 8 10 8 10 8 6 11 11 22 5 5 6 5 7 5 6 8 9 18 14 12 14 10 12 13 25 20 2 7
24 25 26 18 10 7 5 6 15 8 20 5 4 7 10 13 8 11 7 9 17 12 5 7 11 16 13 15 4 13 9 5 16 15 24 3 13 11 13 11 17 10 8 3 6
26 26 18 21 18 14 8 12 16 15 15 5 2 8 10 9 5 11 13 13 9 21 13 9 17 3 6 3 5 8 7 2 8 3 12 12 20 14 6 10 13 10 5 9 11
12 7 11 23 25 18 7 28 18 16 9 9 19 15 21 21 12 11 13 8 10 17 19 9 16 8 6 2 2 5 2 4 4 8 17 18 18 15 19 21 12 9 10 11 8
12 3 9 25 23 3 5 12 18 20 11 11 19 24 22 21 19 20 14 11 11 8 15 10 10 6 7 10 14 6 6 6 3 7 10 20 7 5 8 7 7 7 7 8 7
5 5 16 33 6 4 5 9 7 19 8 12 12 19 23 22 25 24 25 20 12 8 7 5 2 10 25 7 3 13 18 18 8 12 10 13 28 4 4 1 6 4 6 3 3
4 6 20 20 8 9 7 16 12 13 7 6 11 15 16 17 14 20 25 19 14 11 10 8 1 5 16 10 4 8 13 13 18 14 29 13 27 2 10 9 6 7 10 10 13
4 4 3 6 10 19 16 22 22 21 23 20 11 10 19 17 18 9 19 13 11 13 10 11 8 15 21 17 4 11 16 18 20 17 23 26 29 38 33 27 25 23 25 22 19
3 4 6 6 12 19 19 15 27 27 23 16 13 25 20 14 20 22 24 30 21 10 1 6 19 24 32 36 33 24 19 17 28 26 20 31 25 33 33 27 30 26 29 24 26
3 4 3 5 13 21 25 20 27 30 27 23 23 24 27 26 24 26 22 19 19 4 11 7 13 21 27 31 34 28 25 35 31 31 32 29 32 31 36 35 32 34 30 25 27
5 4 1 3 5 8 16 29 33 28 31 29 29 23 25 28 32 32 26 22 7 7 12 6 6 9 20 26 24 19 36 37 36 38 32 28 35 36 35 32 31 31 22 23 20
Wind_Direction
10 9 10 11 11 11 11 11 10 8 8 9 359 315 251 278 290 241 242 220 208 222 196 174 207 206 218 217 238 259 250 267 280 264 303 153 212 175 358 237 204 199 259 97 154
356 358 0 2 4 3 4 4 2 359 356 356 353 336 279 264 274 257 241 226 217 208 173 200 217 189 214 233 216 239 259 288 307 259 257 214 236 212 214 219 229 231 214 172 164
341 344 347 350 353 356 355 353 353 351 349 346 341 329 311 261 277 248 213 207 213 208 209 212 245 204 245 233 201 200 254 347 255 243 247 253 236 219 230 245 230 236 221 188 184
327 329 333 340 343 345 344 345 344 343 342 338 333 320 310 225 272 137 186 191 202 186 187 191 194 210 241 223 200 258 251 247 290 238 238 240 264 235 230 242 286 259 251 177 196
322 318 320 325 329 331 334 336 335 334 332 330 323 300 268 238 254 221 192 198 187 171 226 229 235 252 250 235 221 248 268 252 253 243 246 255 248 254 259 248 255 224 237 198 207
325 322 316 315 317 321 324 327 329 326 325 319 303 252 237 255 250 213 203 197 195 202 207 220 290 303 288 261 235 353 280 268 257 240 233 241 260 246 258 247 243 232 228 227 217
320 317 315 313 312 312 317 320 321 320 319 312 277 211 240 252 219 208 200 202 206 212 222 213 210 233 359 262 245 273 276 270 242 231 234 217 257 236 253 227 238 236 235 232 227
309 312 312 310 310 308 312 316 317 316 313 296 232 208 259 229 191 209 184 165 177 183 191 164 199 249 238 42 237 257 252 273 25 180 191 198 268 253 258 201 236 248 243 235 232
315 311 310 305 307 307 310 316 313 309 303 207 181 231 261 188 190 195 192 206 154 126 110 140 201 256 194 243 267 218 267 272 276 188 167 208 272 273 183 245 264 265 261 252 236
336 324 319 317 308 306 312 317 308 288 165 159 251 234 195 222 146 163 175 171 175 157 172 208 222 238 220 229 249 276 284 287 276 203 213 231 251 270 271 275 269 268 266 268 255
333 334 323 324 324 311 324 339 252 210 206 233 193 267 185 126 155 188 169 166 176 213 217 199 224 231 239 235 252 275 282 279 274 272 217 242 255 266 279 277 274 271 273 266 256
320 333 335 330 323 316 339 315 67 336 294 241 255 264 236 189 239 196 170 190 193 221 218 207 236 252 274 280 271 268 267 271 276 291 211 267 268 269 272 269 270 273 273 268 268
305 322 333 334 319 337 212 147 160 55 260 235 220 239 234 191 237 219 183 203 216 232 226 241 258 96 271 256 251 249 249 260 263 280 224 274 272 258 247 253 262 269 264 270 262
294 306 328 341 326 327 269 221 157 154 264 225 199 172 151 192 250 113 211 224 210 245 240 257 266 265 263 254 254 264 267 256 266 277 265 154 286 276 285 272 252 265 275 270 254
279 284 304 336 306 318 339 316 276 244 276 106 159 106 143 206 80 155 176 205 237 213 191 230 225 224 238 250 231 233 357 251 257 259 277 265 270 275 229 264 249 255 261 280 179
267 265 274 301 283 260 298 314 292 237 241 183 150 181 180 199 181 129 185 236 335 245 240 258 96 232 235 112 241 71 267 239 232 255 253 259 242 277 229 206 241 259 260 216 162
264 253 243 243 276 262 210 276 256 236 123 187 200 176 218 197 201 191 173 188 191 185 220 226 230 204 187 213 176 203 238 280 254 234 262 271 264 264 277 245 241 262 271 125 166
260 245 235 227 222 221 164 196 244 256 230 69 153 184 205 179 223 198 192 228 228 244 275 249 252 199 198 222 276 194 221 234 281 274 284 294 266 256 256 237 242 260 267 170 195
271 247 216 223 210 192 204 213 236 240 255 261 210 237 221 218 227 198 215 228 225 198 211 229 253 124 192 165 196 167 203 308 280 258 279 260 261 254 159 206 238 245 230 223 227
250 229 224 216 208 176 204 234 241 224 250 242 233 217 242 230 195 195 219 218 229 204 227 254 273 180 128 172 236 234 74 198 209 280 270 270 286 277 271 254 228 241 234 252 208
257 234 219 202 183 196 235 240 258 257 252 242 252 256 253 251 239 230 236 238 198 205 219 235 227 241 145 201 218 190 217 218 293 245 263 285 269 89 131 157 181 219 236 247 185
215 226 177 170 178 177 223 233 261 271 295 260 268 263 265 267 259 254 249 250 193 152 195 212 292 248 250 262 244 256 238 216 220 229 235 260 274 13 263 273 130 193 216 195 228
256 228 178 176 216 207 225 232 236 250 227 209 242 247 255 260 271 265 271 270 262 186 187 166 223 269 279 242 168 217 220 238 237 252 250 241 261 319 283 213 212 193 228 228 236
273 231 180 217 228 229 218 233 236 234 242 228 221 246 261 254 256 261 263 266 258 252 236 160 209 231 238 240 211 206 221 223 223 236 250 241 264 273 266 274 276 279 280 276 276
232 256 188 198 226 227 223 226 240 243 226 220 231 221 221 232 243 246 253 260 265 251 136 217 228 226 237 255 262 268 270 237 230 233 240 256 244 258 276 273 277 285 282 289 287
283 302 330 299 253 218 225 223 233 242 235 227 227 228 223 225 223 249 228 239 230 177 244 210 242 237 244 248 253 254 252 253 261 257 255 252 266 259 266 275 276 275 285 286 285
357 344 324 270 299 266 242 238 235 235 245 244 246 234 235 226 228 241 252 253 145 202 210 199 221 230 245 246 254 251 239 247 251 254 247 248 253 265 266 259 265 276 285 278 286